Year,Month,Day,Hour,Minute,Value (Times are PST for temperature in C)
2010,10,14,00,00,5.50
2010,10,14,00,01,5.50
2010,10,14,00,02,5.60
2010,10,14,00,03,5.70
2010,10,14,00,04,5.70
2010,10,14,00,05,5.70
2010,10,14,00,06,5.70
2010,10,14,00,07,5.70
2010,10,14,00,08,5.70
2010,10,14,00,09,5.70
2010,10,14,00,10,5.70
2010,10,14,00,11,5.70
2010,10,14,00,12,5.70
2010,10,14,00,13,5.60
2010,10,14,00,14,5.60
2010,10,14,00,15,5.60
2010,10,14,00,16,5.50
2010,10,14,00,17,5.40
2010,10,14,00,18,5.40
2010,10,14,00,19,5.30
2010,10,14,00,20,5.20
2010,10,14,00,21,5.10
2010,10,14,00,22,5.10
2010,10,14,00,23,5.00
2010,10,14,00,24,5.00
2010,10,14,00,25,4.90
2010,10,14,00,26,4.90
2010,10,14,00,27,4.90
2010,10,14,00,28,4.90
2010,10,14,00,29,4.90
2010,10,14,00,30,4.90
2010,10,14,00,31,4.90
2010,10,14,00,32,4.90
2010,10,14,00,33,5.00
2010,10,14,00,34,5.00
2010,10,14,00,35,5.10
2010,10,14,00,36,5.10
2010,10,14,00,37,5.10
2010,10,14,00,38,5.10
2010,10,14,00,39,5.00
2010,10,14,00,40,5.00
2010,10,14,00,41,4.90
2010,10,14,00,42,4.90
2010,10,14,00,43,4.80
2010,10,14,00,44,4.80
2010,10,14,00,45,4.80
2010,10,14,00,46,4.80
2010,10,14,00,47,4.80
2010,10,14,00,48,4.80
2010,10,14,00,49,4.80
2010,10,14,00,50,4.80
2010,10,14,00,51,4.80
2010,10,14,00,52,4.80
2010,10,14,00,53,4.80
2010,10,14,00,54,4.70
2010,10,14,00,55,4.70
2010,10,14,00,56,4.70
2010,10,14,00,57,4.60
2010,10,14,00,58,4.60
2010,10,14,00,59,4.60
2010,10,14,01,00,4.60
2010,10,14,01,01,4.70
2010,10,14,01,02,4.70
2010,10,14,01,03,4.70
2010,10,14,01,04,4.70
2010,10,14,01,05,4.70
2010,10,14,01,06,4.70
2010,10,14,01,07,4.70
2010,10,14,01,08,4.70
2010,10,14,01,09,4.70
2010,10,14,01,10,4.70
2010,10,14,01,11,4.70
2010,10,14,01,12,4.70
2010,10,14,01,13,4.70
2010,10,14,01,14,4.60
2010,10,14,01,15,4.60
2010,10,14,01,16,4.60
2010,10,14,01,17,4.60
2010,10,14,01,18,4.60
2010,10,14,01,19,4.60
2010,10,14,01,20,4.60
2010,10,14,01,21,4.60
2010,10,14,01,22,4.60
2010,10,14,01,23,4.60
2010,10,14,01,24,4.70
2010,10,14,01,25,4.70
2010,10,14,01,26,4.80
2010,10,14,01,27,4.90
2010,10,14,01,28,5.00
2010,10,14,01,29,5.10
2010,10,14,01,30,5.10
2010,10,14,01,31,5.10
2010,10,14,01,32,5.10
2010,10,14,01,33,5.10
2010,10,14,01,34,5.00
2010,10,14,01,35,5.00
2010,10,14,01,36,4.90
2010,10,14,01,37,4.90
2010,10,14,01,38,4.80
2010,10,14,01,39,4.70
2010,10,14,01,40,4.60
2010,10,14,01,41,4.50
2010,10,14,01,42,4.40
2010,10,14,01,43,4.40
2010,10,14,01,44,4.30
2010,10,14,01,45,4.30
2010,10,14,01,46,4.30
2010,10,14,01,47,4.30
2010,10,14,01,48,4.30
2010,10,14,01,49,4.30
2010,10,14,01,50,4.30
2010,10,14,01,51,4.30
2010,10,14,01,52,4.30
2010,10,14,01,53,4.30
2010,10,14,01,54,4.30
2010,10,14,01,55,4.30
2010,10,14,01,56,4.30
2010,10,14,01,57,4.40
2010,10,14,01,58,4.40
2010,10,14,01,59,4.40
2010,10,14,02,00,4.30
2010,10,14,02,01,4.30
2010,10,14,02,02,4.30
2010,10,14,02,03,4.30
2010,10,14,02,04,4.30
2010,10,14,02,05,4.30
2010,10,14,02,06,4.30
2010,10,14,02,07,4.20
2010,10,14,02,08,4.20
2010,10,14,02,09,4.10
2010,10,14,02,10,4.10
2010,10,14,02,11,4.10
2010,10,14,02,12,4.00
2010,10,14,02,13,4.00
2010,10,14,02,14,3.90
2010,10,14,02,15,3.90
2010,10,14,02,16,4.00
2010,10,14,02,17,4.00
2010,10,14,02,18,4.00
2010,10,14,02,19,4.10
2010,10,14,02,20,4.10
2010,10,14,02,21,4.10
2010,10,14,02,22,4.00
2010,10,14,02,23,4.00
2010,10,14,02,24,4.00
2010,10,14,02,25,4.10
2010,10,14,02,26,4.10
2010,10,14,02,27,4.10
2010,10,14,02,28,4.10
2010,10,14,02,29,4.10
2010,10,14,02,30,4.10
2010,10,14,02,31,4.10
2010,10,14,02,32,4.10
2010,10,14,02,33,4.10
2010,10,14,02,34,4.10
2010,10,14,02,35,4.10
2010,10,14,02,36,4.10
2010,10,14,02,37,4.10
2010,10,14,02,38,4.10
2010,10,14,02,39,4.20
2010,10,14,02,40,4.30
2010,10,14,02,41,4.40
2010,10,14,02,42,4.40
2010,10,14,02,43,4.50
2010,10,14,02,44,4.50
2010,10,14,02,45,4.50
2010,10,14,02,46,4.40
2010,10,14,02,47,4.40
2010,10,14,02,48,4.30
2010,10,14,02,49,4.20
2010,10,14,02,50,4.10
2010,10,14,02,51,4.10
2010,10,14,02,52,4.00
2010,10,14,02,53,3.90
2010,10,14,02,54,3.90
2010,10,14,02,55,3.90
2010,10,14,02,56,3.90
2010,10,14,02,57,4.00
2010,10,14,02,58,4.10
2010,10,14,02,59,4.20
2010,10,14,03,00,4.30
2010,10,14,03,01,4.40
2010,10,14,03,02,4.60
2010,10,14,03,03,4.70
2010,10,14,03,04,4.80
2010,10,14,03,05,4.90
2010,10,14,03,06,4.70
2010,10,14,03,07,4.60
2010,10,14,03,08,4.50
2010,10,14,03,09,4.30
2010,10,14,03,10,4.10
2010,10,14,03,11,4.00
2010,10,14,03,12,4.00
2010,10,14,03,13,3.90
2010,10,14,03,14,3.90
2010,10,14,03,15,3.90
2010,10,14,03,16,3.90
2010,10,14,03,17,3.90
2010,10,14,03,18,3.90
2010,10,14,03,19,3.90
2010,10,14,03,20,3.90
2010,10,14,03,21,3.90
2010,10,14,03,22,3.90
2010,10,14,03,23,3.90
2010,10,14,03,24,3.90
2010,10,14,03,25,3.90
2010,10,14,03,26,3.90
2010,10,14,03,27,4.00
2010,10,14,03,28,4.10
2010,10,14,03,29,4.20
2010,10,14,03,30,4.30
2010,10,14,03,31,4.40
2010,10,14,03,32,4.40
2010,10,14,03,33,4.40
2010,10,14,03,34,4.40
2010,10,14,03,35,4.30
2010,10,14,03,36,4.30
2010,10,14,03,37,4.30
2010,10,14,03,38,4.30
2010,10,14,03,39,4.30
2010,10,14,03,40,4.20
2010,10,14,03,41,4.20
2010,10,14,03,42,4.20
2010,10,14,03,43,4.20
2010,10,14,03,44,4.20
2010,10,14,03,45,4.10
2010,10,14,03,46,4.10
2010,10,14,03,47,4.10
2010,10,14,03,48,4.10
2010,10,14,03,49,4.10
2010,10,14,03,50,4.10
2010,10,14,03,51,4.10
2010,10,14,03,52,4.20
2010,10,14,03,53,4.20
2010,10,14,03,54,4.20
2010,10,14,03,55,4.20
2010,10,14,03,56,4.20
2010,10,14,03,57,4.10
2010,10,14,03,58,4.10
2010,10,14,03,59,4.10
2010,10,14,04,00,4.10
2010,10,14,04,01,4.20
2010,10,14,04,02,4.20
2010,10,14,04,03,4.20
2010,10,14,04,04,4.20
2010,10,14,04,05,4.20
2010,10,14,04,06,4.20
2010,10,14,04,07,4.20
2010,10,14,04,08,4.20
2010,10,14,04,09,4.20
2010,10,14,04,10,4.20
2010,10,14,04,11,4.20
2010,10,14,04,12,4.10
2010,10,14,04,13,4.10
2010,10,14,04,14,4.10
2010,10,14,04,15,4.10
2010,10,14,04,16,4.10
2010,10,14,04,17,4.10
2010,10,14,04,18,4.10
2010,10,14,04,19,4.10
2010,10,14,04,20,4.10
2010,10,14,04,21,4.00
2010,10,14,04,22,3.90
2010,10,14,04,23,3.80
2010,10,14,04,24,3.70
2010,10,14,04,25,3.70
2010,10,14,04,26,3.70
2010,10,14,04,27,3.60
2010,10,14,04,28,3.60
2010,10,14,04,29,3.60
2010,10,14,04,30,3.60
2010,10,14,04,31,3.60
2010,10,14,04,32,3.60
2010,10,14,04,33,3.60
2010,10,14,04,34,3.60
2010,10,14,04,35,3.60
2010,10,14,04,36,3.60
2010,10,14,04,37,3.60
2010,10,14,04,38,3.70
2010,10,14,04,39,3.70
2010,10,14,04,40,3.90
2010,10,14,04,41,4.00
2010,10,14,04,42,4.10
2010,10,14,04,43,4.20
2010,10,14,04,44,4.30
2010,10,14,04,45,4.40
2010,10,14,04,46,4.40
2010,10,14,04,47,4.40
2010,10,14,04,48,4.40
2010,10,14,04,49,4.50
2010,10,14,04,50,4.50
2010,10,14,04,51,4.40
2010,10,14,04,52,4.30
2010,10,14,04,53,4.30
2010,10,14,04,54,4.20
2010,10,14,04,55,4.10
2010,10,14,04,56,4.00
2010,10,14,04,57,3.90
2010,10,14,04,58,3.90
2010,10,14,04,59,3.80
2010,10,14,05,00,3.80
2010,10,14,05,01,3.70
2010,10,14,05,02,3.70
2010,10,14,05,03,3.70
2010,10,14,05,04,3.60
2010,10,14,05,05,3.60
2010,10,14,05,06,3.60
2010,10,14,05,07,3.60
2010,10,14,05,08,3.60
2010,10,14,05,09,3.60
2010,10,14,05,10,3.60
2010,10,14,05,11,3.60
2010,10,14,05,12,3.60
2010,10,14,05,13,3.60
2010,10,14,05,14,3.60
2010,10,14,05,15,3.60
2010,10,14,05,16,3.70
2010,10,14,05,17,3.70
2010,10,14,05,18,3.70
2010,10,14,05,19,3.70
2010,10,14,05,20,3.80
2010,10,14,05,21,3.80
2010,10,14,05,22,3.80
2010,10,14,05,23,3.80
2010,10,14,05,24,3.80
2010,10,14,05,25,3.80
2010,10,14,05,26,3.90
2010,10,14,05,27,3.90
2010,10,14,05,28,4.00
2010,10,14,05,29,4.00
2010,10,14,05,30,4.10
2010,10,14,05,31,4.10
2010,10,14,05,32,4.10
2010,10,14,05,33,4.00
2010,10,14,05,34,4.00
2010,10,14,05,35,4.00
2010,10,14,05,36,4.00
2010,10,14,05,37,3.90
2010,10,14,05,38,3.90
2010,10,14,05,39,3.90
2010,10,14,05,40,3.90
2010,10,14,05,41,3.90
2010,10,14,05,42,3.80
2010,10,14,05,43,3.80
2010,10,14,05,44,3.80
2010,10,14,05,45,3.80
2010,10,14,05,46,3.80
2010,10,14,05,47,3.80
2010,10,14,05,48,3.70
2010,10,14,05,49,3.70
2010,10,14,05,50,3.70
2010,10,14,05,51,3.70
2010,10,14,05,52,3.60
2010,10,14,05,53,3.60
2010,10,14,05,54,3.60
2010,10,14,05,55,3.60
2010,10,14,05,56,3.50
2010,10,14,05,57,3.50
2010,10,14,05,58,3.50
2010,10,14,05,59,3.50
2010,10,14,06,00,3.50
2010,10,14,06,01,3.50
2010,10,14,06,02,3.50
2010,10,14,06,03,3.60
2010,10,14,06,04,3.60
2010,10,14,06,05,3.70
2010,10,14,06,06,3.70
2010,10,14,06,07,3.80
2010,10,14,06,08,3.80
2010,10,14,06,09,3.80
2010,10,14,06,10,3.90
2010,10,14,06,11,3.90
2010,10,14,06,12,4.00
2010,10,14,06,13,4.00
2010,10,14,06,14,3.90
2010,10,14,06,15,3.90
2010,10,14,06,16,3.80
2010,10,14,06,17,3.80
2010,10,14,06,18,3.80
2010,10,14,06,19,3.70
2010,10,14,06,20,3.70
2010,10,14,06,21,3.60
2010,10,14,06,22,3.60
2010,10,14,06,23,3.60
2010,10,14,06,24,3.60
2010,10,14,06,25,3.60
2010,10,14,06,26,3.60
2010,10,14,06,27,3.60
2010,10,14,06,28,3.60
2010,10,14,06,29,3.60
2010,10,14,06,30,3.70
2010,10,14,06,31,3.70
2010,10,14,06,32,3.70
2010,10,14,06,33,3.70
2010,10,14,06,34,3.80
2010,10,14,06,35,3.80
2010,10,14,06,36,3.90
2010,10,14,06,37,4.00
2010,10,14,06,38,4.10
2010,10,14,06,39,4.20
2010,10,14,06,40,4.20
2010,10,14,06,41,4.30
2010,10,14,06,42,4.30
2010,10,14,06,43,4.40
2010,10,14,06,44,4.40
2010,10,14,06,45,4.50
2010,10,14,06,46,4.50
2010,10,14,06,47,4.50
2010,10,14,06,48,4.60
2010,10,14,06,49,4.70
2010,10,14,06,50,4.70
2010,10,14,06,51,4.80
2010,10,14,06,52,4.80
2010,10,14,06,53,4.80
2010,10,14,06,54,4.80
2010,10,14,06,55,4.80
2010,10,14,06,56,4.80
2010,10,14,06,57,4.80
2010,10,14,06,58,4.80
2010,10,14,06,59,4.80
2010,10,14,07,00,4.80
2010,10,14,07,01,4.80
2010,10,14,07,02,4.70
2010,10,14,07,03,4.70
2010,10,14,07,04,4.70
2010,10,14,07,05,4.70
2010,10,14,07,06,4.70
2010,10,14,07,07,4.70
2010,10,14,07,08,4.70
2010,10,14,07,09,4.70
2010,10,14,07,10,4.70
2010,10,14,07,11,4.70
2010,10,14,07,12,4.60
2010,10,14,07,13,4.60
2010,10,14,07,14,4.60
2010,10,14,07,15,4.50
2010,10,14,07,16,4.50
2010,10,14,07,17,4.50
2010,10,14,07,18,4.50
2010,10,14,07,19,4.50
2010,10,14,07,20,4.50
2010,10,14,07,21,4.50
2010,10,14,07,22,4.50
2010,10,14,07,23,4.50
2010,10,14,07,24,4.60
2010,10,14,07,25,4.60
2010,10,14,07,26,4.70
2010,10,14,07,27,4.70
2010,10,14,07,28,4.80
2010,10,14,07,29,4.80
2010,10,14,07,30,4.80
2010,10,14,07,31,4.90
2010,10,14,07,32,4.90
2010,10,14,07,33,4.90
2010,10,14,07,34,4.90
2010,10,14,07,35,4.90
2010,10,14,07,36,4.90
2010,10,14,07,37,4.90
2010,10,14,07,38,5.00
2010,10,14,07,39,5.10
2010,10,14,07,40,5.10
2010,10,14,07,41,5.20
2010,10,14,07,42,5.30
2010,10,14,07,43,5.30
2010,10,14,07,44,5.40
2010,10,14,07,45,5.40
2010,10,14,07,46,5.50
2010,10,14,07,47,5.60
2010,10,14,07,48,5.60
2010,10,14,07,49,5.70
2010,10,14,07,50,5.80
2010,10,14,07,51,5.80
2010,10,14,07,52,5.80
2010,10,14,07,53,5.90
2010,10,14,07,54,5.90
2010,10,14,07,55,5.90
2010,10,14,07,56,6.00
2010,10,14,07,57,6.00
2010,10,14,07,58,6.10
2010,10,14,07,59,6.10
2010,10,14,08,00,6.20
2010,10,14,08,01,6.20
2010,10,14,08,02,6.30
2010,10,14,08,03,6.30
2010,10,14,08,04,6.40
2010,10,14,08,05,6.50
2010,10,14,08,06,6.50
2010,10,14,08,07,6.60
2010,10,14,08,08,6.70
2010,10,14,08,09,6.70
2010,10,14,08,10,6.80
2010,10,14,08,11,6.80
2010,10,14,08,12,6.80
2010,10,14,08,13,6.90
2010,10,14,08,14,6.90
2010,10,14,08,15,6.90
2010,10,14,08,16,6.90
2010,10,14,08,17,7.00
2010,10,14,08,18,7.00
2010,10,14,08,19,7.10
2010,10,14,08,20,7.10
2010,10,14,08,21,7.10
2010,10,14,08,22,7.10
2010,10,14,08,23,7.10
2010,10,14,08,24,7.20
2010,10,14,08,25,7.20
2010,10,14,08,26,7.20
2010,10,14,08,27,7.20
2010,10,14,08,28,7.20
2010,10,14,08,29,7.20
2010,10,14,08,30,7.20
2010,10,14,08,31,7.20
2010,10,14,08,32,7.20
2010,10,14,08,33,7.20
2010,10,14,08,34,7.20
2010,10,14,08,35,7.30
2010,10,14,08,36,7.30
2010,10,14,08,37,7.30
2010,10,14,08,38,7.40
2010,10,14,08,39,7.50
2010,10,14,08,40,7.50
2010,10,14,08,41,7.60
2010,10,14,08,42,7.70
2010,10,14,08,43,7.80
2010,10,14,08,44,7.90
2010,10,14,08,45,7.90
2010,10,14,08,46,8.00
2010,10,14,08,47,8.00
2010,10,14,08,48,8.10
2010,10,14,08,49,8.10
2010,10,14,08,50,8.20
2010,10,14,08,51,8.20
2010,10,14,08,52,8.30
2010,10,14,08,53,8.30
2010,10,14,08,54,8.30
2010,10,14,08,55,8.40
2010,10,14,08,56,8.40
2010,10,14,08,57,8.40
2010,10,14,08,58,8.40
2010,10,14,08,59,8.40
2010,10,14,09,00,8.40
2010,10,14,09,01,8.40
2010,10,14,09,02,8.40
2010,10,14,09,03,8.40
2010,10,14,09,04,8.40
2010,10,14,09,05,8.40
2010,10,14,09,06,8.40
2010,10,14,09,07,8.30
2010,10,14,09,08,8.30
2010,10,14,09,09,8.30
2010,10,14,09,10,8.30
2010,10,14,09,11,8.30
2010,10,14,09,12,8.30
2010,10,14,09,13,8.40
2010,10,14,09,14,8.40
2010,10,14,09,15,8.40
2010,10,14,09,16,8.40
2010,10,14,09,17,8.40
2010,10,14,09,18,8.40
2010,10,14,09,19,8.50
2010,10,14,09,20,8.50
2010,10,14,09,21,8.60
2010,10,14,09,22,8.60
2010,10,14,09,23,8.60
2010,10,14,09,24,8.60
2010,10,14,09,25,8.70
2010,10,14,09,26,8.70
2010,10,14,09,27,8.70
2010,10,14,09,28,8.80
2010,10,14,09,29,8.80
2010,10,14,09,30,8.80
2010,10,14,09,31,8.80
2010,10,14,09,32,8.90
2010,10,14,09,33,8.90
2010,10,14,09,34,8.90
2010,10,14,09,35,9.00
2010,10,14,09,36,9.10
2010,10,14,09,37,9.10
2010,10,14,09,38,9.10
2010,10,14,09,39,9.10
2010,10,14,09,40,9.10
2010,10,14,09,41,9.10
2010,10,14,09,42,9.10
2010,10,14,09,43,9.10
2010,10,14,09,44,9.20
2010,10,14,09,45,9.20
2010,10,14,09,46,9.20
2010,10,14,09,47,9.20
2010,10,14,09,48,9.20
2010,10,14,09,49,9.30
2010,10,14,09,50,9.30
2010,10,14,09,51,9.40
2010,10,14,09,52,9.50
2010,10,14,09,53,9.50
2010,10,14,09,54,9.60
2010,10,14,09,55,9.60
2010,10,14,09,56,9.70
2010,10,14,09,57,9.70
2010,10,14,09,58,9.80
2010,10,14,09,59,9.80
2010,10,14,10,00,9.80
2010,10,14,10,01,9.90
2010,10,14,10,02,9.90
2010,10,14,10,03,10.00
2010,10,14,10,04,10.10
2010,10,14,10,05,10.10
2010,10,14,10,06,10.10
2010,10,14,10,07,10.20
2010,10,14,10,08,10.20
2010,10,14,10,09,10.20
2010,10,14,10,10,10.10
2010,10,14,10,11,10.20
2010,10,14,10,12,10.20
2010,10,14,10,13,10.20
2010,10,14,10,14,10.20
2010,10,14,10,15,10.20
2010,10,14,10,16,10.20
2010,10,14,10,17,10.20
2010,10,14,10,18,10.20
2010,10,14,10,19,10.20
2010,10,14,10,20,10.20
2010,10,14,10,21,10.30
2010,10,14,10,22,10.30
2010,10,14,10,23,10.30
2010,10,14,10,24,10.30
2010,10,14,10,25,10.30
2010,10,14,10,26,10.40
2010,10,14,10,27,10.40
2010,10,14,10,28,10.40
2010,10,14,10,29,10.40
2010,10,14,10,30,10.50
2010,10,14,10,31,10.50
2010,10,14,10,32,10.50
2010,10,14,10,33,10.60
2010,10,14,10,34,10.60
2010,10,14,10,35,10.60
2010,10,14,10,36,10.60
2010,10,14,10,37,10.70
2010,10,14,10,38,10.70
2010,10,14,10,39,10.70
2010,10,14,10,40,10.80
2010,10,14,10,41,10.80
2010,10,14,10,42,10.80
2010,10,14,10,43,10.80
2010,10,14,10,44,10.80
2010,10,14,10,45,10.90
2010,10,14,10,46,10.90
2010,10,14,10,47,10.90
2010,10,14,10,48,10.90
2010,10,14,10,49,11.00
2010,10,14,10,50,11.00
2010,10,14,10,51,11.10
2010,10,14,10,52,11.10
2010,10,14,10,53,11.10
2010,10,14,10,54,11.20
2010,10,14,10,55,11.20
2010,10,14,10,56,11.30
2010,10,14,10,57,11.30
2010,10,14,10,58,11.30
2010,10,14,10,59,11.30
2010,10,14,11,00,11.30
2010,10,14,11,01,11.30
2010,10,14,11,02,11.30
2010,10,14,11,03,11.30
2010,10,14,11,04,11.30
2010,10,14,11,05,11.30
2010,10,14,11,06,11.40
2010,10,14,11,07,11.40
2010,10,14,11,08,11.40
2010,10,14,11,09,11.40
2010,10,14,11,10,11.50
2010,10,14,11,11,11.50
2010,10,14,11,12,11.50
2010,10,14,11,13,11.60
2010,10,14,11,14,11.60
2010,10,14,11,15,11.70
2010,10,14,11,16,11.70
2010,10,14,11,17,11.70
2010,10,14,11,18,11.70
2010,10,14,11,19,11.80
2010,10,14,11,20,11.80
2010,10,14,11,21,11.80
2010,10,14,11,22,11.80
2010,10,14,11,23,11.80
2010,10,14,11,24,11.90
2010,10,14,11,25,11.90
2010,10,14,11,26,11.90
2010,10,14,11,27,11.90
2010,10,14,11,28,11.90
2010,10,14,11,29,12.00
2010,10,14,11,30,12.00
2010,10,14,11,31,12.00
2010,10,14,11,32,12.10
2010,10,14,11,33,12.10
2010,10,14,11,34,12.20
2010,10,14,11,35,12.20
2010,10,14,11,36,12.20
2010,10,14,11,37,12.20
2010,10,14,11,38,12.20
2010,10,14,11,39,12.20
2010,10,14,11,40,12.20
2010,10,14,11,41,12.20
2010,10,14,11,42,12.20
2010,10,14,11,43,12.30
2010,10,14,11,44,12.20
2010,10,14,11,45,12.30
2010,10,14,11,46,12.20
2010,10,14,11,47,12.30
2010,10,14,11,48,12.30
2010,10,14,11,49,12.30
2010,10,14,11,50,12.30
2010,10,14,11,51,12.30
2010,10,14,11,52,12.30
2010,10,14,11,53,12.30
2010,10,14,11,54,12.30
2010,10,14,11,55,12.40
2010,10,14,11,56,12.40
2010,10,14,11,57,12.40
2010,10,14,11,58,12.50
2010,10,14,11,59,12.50
2010,10,14,12,00,12.60
2010,10,14,12,01,12.60
2010,10,14,12,02,12.60
2010,10,14,12,03,12.70
2010,10,14,12,04,12.70
2010,10,14,12,05,12.70
2010,10,14,12,06,12.70
2010,10,14,12,07,12.80
2010,10,14,12,08,12.80
2010,10,14,12,09,12.80
2010,10,14,12,10,12.80
2010,10,14,12,11,12.80
2010,10,14,12,12,12.80
2010,10,14,12,13,12.80
2010,10,14,12,14,12.80
2010,10,14,12,15,12.80
2010,10,14,12,16,12.90
2010,10,14,12,17,12.90
2010,10,14,12,18,12.90
2010,10,14,12,19,12.90
2010,10,14,12,20,12.90
2010,10,14,12,21,12.90
2010,10,14,12,22,13.00
2010,10,14,12,23,13.00
2010,10,14,12,24,13.00
2010,10,14,12,25,13.10
2010,10,14,12,26,13.10
2010,10,14,12,27,13.10
2010,10,14,12,28,13.10
2010,10,14,12,29,13.10
2010,10,14,12,30,13.20
2010,10,14,12,31,13.20
2010,10,14,12,32,13.20
2010,10,14,12,33,13.30
2010,10,14,12,34,13.30
2010,10,14,12,35,13.30
2010,10,14,12,36,13.30
2010,10,14,12,37,13.30
2010,10,14,12,38,13.30
2010,10,14,12,39,13.30
2010,10,14,12,40,13.30
2010,10,14,12,41,13.30
2010,10,14,12,42,13.30
2010,10,14,12,43,13.30
2010,10,14,12,44,13.30
2010,10,14,12,45,13.30
2010,10,14,12,46,13.30
2010,10,14,12,47,13.30
2010,10,14,12,48,13.30
2010,10,14,12,49,13.30
2010,10,14,12,50,13.30
2010,10,14,12,51,13.40
2010,10,14,12,52,13.40
2010,10,14,12,53,13.30
2010,10,14,12,54,13.40
2010,10,14,12,55,13.40
2010,10,14,12,56,13.40
2010,10,14,12,57,13.40
2010,10,14,12,58,13.40
2010,10,14,12,59,13.40
2010,10,14,13,00,13.40
2010,10,14,13,01,13.40
2010,10,14,13,02,13.40
2010,10,14,13,03,13.50
2010,10,14,13,04,13.50
2010,10,14,13,05,13.50
2010,10,14,13,06,13.50
2010,10,14,13,07,13.60
2010,10,14,13,08,13.60
2010,10,14,13,09,13.60
2010,10,14,13,10,13.60
2010,10,14,13,11,13.60
2010,10,14,13,12,13.60
2010,10,14,13,13,13.60
2010,10,14,13,14,13.60
2010,10,14,13,15,13.60
2010,10,14,13,16,13.60
2010,10,14,13,17,13.50
2010,10,14,13,18,13.50
2010,10,14,13,19,13.40
2010,10,14,13,20,13.40
2010,10,14,13,21,13.40
2010,10,14,13,22,13.40
2010,10,14,13,23,13.40
2010,10,14,13,24,13.40
2010,10,14,13,25,13.50
2010,10,14,13,26,13.50
2010,10,14,13,27,13.50
2010,10,14,13,28,13.60
2010,10,14,13,29,13.60
2010,10,14,13,30,13.60
2010,10,14,13,31,13.60
2010,10,14,13,32,13.60
2010,10,14,13,33,13.60
2010,10,14,13,34,13.60
2010,10,14,13,35,13.60
2010,10,14,13,36,13.60
2010,10,14,13,37,13.60
2010,10,14,13,38,13.60
2010,10,14,13,39,13.60
2010,10,14,13,40,13.70
2010,10,14,13,41,13.70
2010,10,14,13,42,13.60
2010,10,14,13,43,13.60
2010,10,14,13,44,13.60
2010,10,14,13,45,13.60
2010,10,14,13,46,13.60
2010,10,14,13,47,13.60
2010,10,14,13,48,13.60
2010,10,14,13,49,13.60
2010,10,14,13,50,13.50
2010,10,14,13,51,13.50
2010,10,14,13,52,13.50
2010,10,14,13,53,13.40
2010,10,14,13,54,13.40
2010,10,14,13,55,13.40
2010,10,14,13,56,13.40
2010,10,14,13,57,13.40
2010,10,14,13,58,13.30
2010,10,14,13,59,13.30
2010,10,14,14,00,13.30
2010,10,14,14,01,13.30
2010,10,14,14,02,13.30
2010,10,14,14,03,13.30
2010,10,14,14,04,13.30
2010,10,14,14,05,13.30
2010,10,14,14,06,13.20
2010,10,14,14,07,13.30
2010,10,14,14,08,13.30
2010,10,14,14,09,13.30
2010,10,14,14,10,13.30
2010,10,14,14,11,13.20
2010,10,14,14,12,13.20
2010,10,14,14,13,13.20
2010,10,14,14,14,13.20
2010,10,14,14,15,13.20
2010,10,14,14,16,13.20
2010,10,14,14,17,13.30
2010,10,14,14,18,13.30
2010,10,14,14,19,13.30
2010,10,14,14,20,13.30
2010,10,14,14,21,13.30
2010,10,14,14,22,13.30
2010,10,14,14,23,13.20
2010,10,14,14,24,13.20
2010,10,14,14,25,13.20
2010,10,14,14,26,13.20
2010,10,14,14,27,13.20
2010,10,14,14,28,13.10
2010,10,14,14,29,13.10
2010,10,14,14,30,13.10
2010,10,14,14,31,13.10
2010,10,14,14,32,13.10
2010,10,14,14,33,13.10
2010,10,14,14,34,13.10
2010,10,14,14,35,13.10
2010,10,14,14,36,13.10
2010,10,14,14,37,13.10
2010,10,14,14,38,13.10
2010,10,14,14,39,13.10
2010,10,14,14,40,13.10
2010,10,14,14,41,13.10
2010,10,14,14,42,13.10
2010,10,14,14,43,13.10
2010,10,14,14,44,13.10
2010,10,14,14,45,13.10
2010,10,14,14,46,13.10
2010,10,14,14,47,13.10
2010,10,14,14,48,13.10
2010,10,14,14,49,13.10
2010,10,14,14,50,13.20
2010,10,14,14,51,13.20
2010,10,14,14,52,13.20
2010,10,14,14,53,13.20
2010,10,14,14,54,13.20
2010,10,14,14,55,13.20
2010,10,14,14,56,13.20
2010,10,14,14,57,13.20
2010,10,14,14,58,13.30
2010,10,14,14,59,13.30
2010,10,14,15,00,13.30
2010,10,14,15,01,13.30
2010,10,14,15,02,13.30
2010,10,14,15,03,13.30
2010,10,14,15,04,13.30
2010,10,14,15,05,13.30
2010,10,14,15,06,13.30
2010,10,14,15,07,13.30
2010,10,14,15,08,13.40
2010,10,14,15,09,13.40
2010,10,14,15,10,13.40
2010,10,14,15,11,13.40
2010,10,14,15,12,13.40
2010,10,14,15,13,13.40
2010,10,14,15,14,13.40
2010,10,14,15,15,13.50
2010,10,14,15,16,13.50
2010,10,14,15,17,13.50
2010,10,14,15,18,13.60
2010,10,14,15,19,13.60
2010,10,14,15,20,13.50
2010,10,14,15,21,13.50
2010,10,14,15,22,13.50
2010,10,14,15,23,13.50
2010,10,14,15,24,13.60
2010,10,14,15,25,13.60
2010,10,14,15,26,13.60
2010,10,14,15,27,13.60
2010,10,14,15,28,13.60
2010,10,14,15,29,13.50
2010,10,14,15,30,13.50
2010,10,14,15,31,13.50
2010,10,14,15,32,13.50
2010,10,14,15,33,13.50
2010,10,14,15,34,13.50
2010,10,14,15,35,13.50
2010,10,14,15,36,13.50
2010,10,14,15,37,13.40
2010,10,14,15,38,13.40
2010,10,14,15,39,13.40
2010,10,14,15,40,13.40
2010,10,14,15,41,13.50
2010,10,14,15,42,13.50
2010,10,14,15,43,13.50
2010,10,14,15,44,13.50
2010,10,14,15,45,13.60
2010,10,14,15,46,13.70
2010,10,14,15,47,13.70
2010,10,14,15,48,13.80
2010,10,14,15,49,13.90
2010,10,14,15,50,13.90
2010,10,14,15,51,13.90
2010,10,14,15,52,13.90
2010,10,14,15,53,14.00
2010,10,14,15,54,14.00
2010,10,14,15,55,14.00
2010,10,14,15,56,14.10
2010,10,14,15,57,14.10
2010,10,14,15,58,14.10
2010,10,14,15,59,14.10
2010,10,14,16,00,14.10
2010,10,14,16,01,14.10
2010,10,14,16,02,14.10
2010,10,14,16,03,14.10
2010,10,14,16,04,14.10
2010,10,14,16,05,14.10
2010,10,14,16,06,14.10
2010,10,14,16,07,14.10
2010,10,14,16,08,14.10
2010,10,14,16,09,14.00
2010,10,14,16,10,14.00
2010,10,14,16,11,14.00
2010,10,14,16,12,14.00
2010,10,14,16,13,14.00
2010,10,14,16,14,13.90
2010,10,14,16,15,13.90
2010,10,14,16,16,13.90
2010,10,14,16,17,13.90
2010,10,14,16,18,13.90
2010,10,14,16,19,13.90
2010,10,14,16,20,13.90
2010,10,14,16,21,13.90
2010,10,14,16,22,13.90
2010,10,14,16,23,13.80
2010,10,14,16,24,13.80
2010,10,14,16,25,13.70
2010,10,14,16,26,13.70
2010,10,14,16,27,13.70
2010,10,14,16,28,13.70
2010,10,14,16,29,13.70
2010,10,14,16,30,13.60
2010,10,14,16,31,13.60
2010,10,14,16,32,13.60
2010,10,14,16,33,13.50
2010,10,14,16,34,13.50
2010,10,14,16,35,13.50
2010,10,14,16,36,13.40
2010,10,14,16,37,13.40
2010,10,14,16,38,13.40
2010,10,14,16,39,13.40
2010,10,14,16,40,13.30
2010,10,14,16,41,13.30
2010,10,14,16,42,13.30
2010,10,14,16,43,13.20
2010,10,14,16,44,13.20
2010,10,14,16,45,13.20
2010,10,14,16,46,13.10
2010,10,14,16,47,13.10
2010,10,14,16,48,13.10
2010,10,14,16,49,13.10
2010,10,14,16,50,13.10
2010,10,14,16,51,13.10
2010,10,14,16,52,13.00
2010,10,14,16,53,13.00
2010,10,14,16,54,13.00
2010,10,14,16,55,13.00
2010,10,14,16,56,13.00
2010,10,14,16,57,13.00
2010,10,14,16,58,13.10
2010,10,14,16,59,13.10
2010,10,14,17,00,13.10
2010,10,14,17,01,13.00
2010,10,14,17,02,13.00
2010,10,14,17,03,13.00
2010,10,14,17,04,13.00
2010,10,14,17,05,13.00
2010,10,14,17,06,13.00
2010,10,14,17,07,13.00
2010,10,14,17,08,13.00
2010,10,14,17,09,13.00
2010,10,14,17,10,13.00
2010,10,14,17,11,12.90
2010,10,14,17,12,12.90
2010,10,14,17,13,12.90
2010,10,14,17,14,12.90
2010,10,14,17,15,12.90
2010,10,14,17,16,12.80
2010,10,14,17,17,12.80
2010,10,14,17,18,12.80
2010,10,14,17,19,12.80
2010,10,14,17,20,12.80
2010,10,14,17,21,12.80
2010,10,14,17,22,12.80
2010,10,14,17,23,12.80
2010,10,14,17,24,12.80
2010,10,14,17,25,12.80
2010,10,14,17,26,12.80
2010,10,14,17,27,12.70
2010,10,14,17,28,12.70
2010,10,14,17,29,12.70
2010,10,14,17,30,12.70
2010,10,14,17,31,12.70
2010,10,14,17,32,12.70
2010,10,14,17,33,12.70
2010,10,14,17,34,12.70
2010,10,14,17,35,12.70
2010,10,14,17,36,12.60
2010,10,14,17,37,12.60
2010,10,14,17,38,12.60
2010,10,14,17,39,12.60
2010,10,14,17,40,12.60
2010,10,14,17,41,12.60
2010,10,14,17,42,12.60
2010,10,14,17,43,12.50
2010,10,14,17,44,12.50
2010,10,14,17,45,12.50